User: anonymous   Login
Location: Unspecified
(0.0000°N, 0.0000°E)
Time: 09:48:55
(UTC+00:00)
Language:

NOAA 13 - Orbit

View from above orbital plane
View from above orbital plane
View from above satellite
View from above satellite

Ground track
Ground track

The orbit data is extracted from the following two-line orbital elements,

1 22739U 93050A   18175.93978231 -.00000011 +00000-0 +16425-4 0  9999
2 22739 098.5092 212.2511 0009494 181.0638 179.0517 14.12708359281826
Epoch (UTC): 24 June 2018 22:33:17
Eccentricity: 0.0009494
inclination: 98.5092°
perigee height: 843 km
apogee height: 857 km
right ascension of ascending node: 212.2511°
argument of perigee: 181.0638°
revolutions per day: 14.12708359
mean anomaly at epoch: 179.0517°
orbit number at epoch: 28182

The dashed part of the orbit path shows where the satellite is in the earth's shadow,  

DLR